CAPE
0 0 0 12 0 0 1 45 16 82 90 126 89 80 84 70 53 0 193 91 158 510 1193 1550 2373 1876 1004 1039 441 278 297 457 473 244 517 574 633 711 766 780 785 777 721 625 503 374 249 195 194
0 0 0 0 0 0 2 2 22 16 87 223 440 259 117 154 355 203 112 68 197 677 1312 1556 2241 1778 1305 826 558 293 290 342 454 298 577 648 747 817 876 890 859 775 654 477 267 191 160 164 201
0 0 0 0 1 0 0 1 36 11 58 63 336 307 13 47 449 132 134 94 299 587 1208 1381 1712 998 1082 966 498 379 337 452 464 382 646 711 811 897 1091 968 879 677 451 329 198 154 152 171 204
0 0 0 0 0 0 0 0 1 16 342 115 94 156 88 272 345 200 208 132 179 515 1030 1562 1599 1354 1019 584 375 398 416 560 521 463 724 666 837 932 972 922 737 623 454 284 178 151 117 144 213
0 0 2 0 0 0 0 0 5 1 114 216 274 294 191 565 329 242 56 5 38 374 840 1079 1485 990 847 510 537 439 534 724 693 562 707 807 840 859 892 836 775 640 468 329 220 171 297 395 508
0 0 0 0 0 0 4 0 0 0 182 275 444 132 182 454 275 4 25 0 30 207 599 786 1085 1147 1087 854 585 593 897 922 824 691 721 838 955 945 928 826 703 606 490 409 365 622 791 841 854
0 0 0 0 0 0 4 24 1 9 22 181 84 45 385 397 74 147 121 0 60 345 487 570 611 529 779 811 724 685 921 1039 1138 1103 1130 1039 1014 994 987 964 829 721 891 912 976 1083 1155 1042 1051
0 0 0 0 0 0 0 25 17 27 83 202 102 76 484 387 275 268 94 0 122 353 413 518 599 603 600 482 672 749 698 952 997 961 973 1056 1043 1062 1070 1283 1194 912 1156 1198 1227 1324 1251 1219 1223
0 0 0 0 0 0 6 21 27 37 136 138 116 36 180 548 457 271 3 0 14 126 331 447 539 539 553 486 453 850 837 937 977 926 1026 1235 954 850 898 1003 1011 953 1260 1499 1514 1480 1396 1397 1406
0 0 0 0 0 0 2 26 36 23 101 75 195 245 643 681 488 211 36 0 0 0 121 330 442 460 462 416 460 623 617 691 772 812 896 985 709 597 636 776 1027 1158 1324 1678 1652 1641 1722 1614 753
0 0 0 0 0 0 2 36 76 49 106 98 202 85 689 707 516 370 362 353 187 170 20 99 252 367 356 330 452 602 548 666 722 730 745 812 585 444 459 488 361 454 836 749 790 648 688 719 755
0 0 0 0 0 0 0 24 124 122 117 223 193 126 598 655 560 459 445 457 438 303 5 17 62 185 214 173 335 469 492 560 597 616 602 549 487 290 135 123 209 278 364 466 619 618 673 934 883
0 0 0 0 0 0 0 17 177 145 139 310 252 132 513 687 586 603 533 555 668 509 135 24 64 70 91 78 169 301 310 400 415 429 394 385 278 128 54 236 300 341 363 359 685 635 1112 1068 1105
0 0 0 0 0 0 0 0 128 261 263 266 207 112 338 510 562 734 684 722 773 664 406 215 201 180 44 2 96 110 159 212 309 274 179 240 172 24 82 312 439 459 470 437 367 462 809 1280 1315
0 0 0 0 0 0 0 0 352 217 211 256 263 132 177 296 440 322 603 770 880 843 612 443 416 364 298 179 64 0 19 44 99 104 106 92 138 112 143 366 596 608 514 372 450 544 1094 1549 1452
0 0 0 0 0 0 0 23 0 51 354 348 271 293 201 144 142 146 179 219 224 606 711 612 561 464 413 363 284 31 5 46 12 27 52 77 205 244 278 428 680 609 459 438 944 1600 1444 1503 1428
0 0 0 0 0 0 0 0 0 21 121 169 229 217 255 199 189 84 170 287 192 145 475 597 687 624 468 436 398 284 198 234 102 49 263 346 396 427 391 368 586 680 614 1231 1591 1843 1700 1510 1411
0 0 0 0 0 0 0 0 0 1 48 62 54 42 85 97 79 134 187 321 316 220 190 398 513 769 671 527 460 408 298 334 269 217 305 340 379 468 544 494 557 735 684 1274 1759 1863 1705 1609 1365
0 0 0 0 0 0 0 0 0 0 0 0 0 0 10 37 81 281 398 366 267 275 365 523 538 530 650 605 527 460 427 489 480 339 500 569 520 577 604 639 541 688 928 1352 1784 1758 1752 1791 1656
0 0 0 0 0 0 0 0 0 0 0 0 0 0 0 33 120 276 369 334 120 288 548 713 746 931 1036 525 673 668 744 760 667 682 665 680 698 834 756 662 664 834 1232 1743 1982 1855 1892 1884 1683
0 0 0 0 0 0 0 0 0 0 0 0 0 7 42 52 91 159 323 14 43 224 328 591 853 1179 1223 1121 997 975 857 854 857 846 821 791 783 838 768 851 854 704 1242 1730 1999 1902 1772 1857 1597
0 0 0 0 0 0 0 0 0 0 0 0 0 0 35 142 103 53 104 170 220 260 265 453 841 1119 1414 1437 1326 1307 1299 951 773 708 715 688 732 1021 1177 1066 1111 1056 1065 1314 1425 1625 1799 1788 1244
0 0 0 0 0 0 0 0 0 0 0 0 0 0 0 0 63 174 191 172 194 163 222 299 503 636 964 899 876 961 980 886 850 714 504 617 649 577 1121 1377 1448 1261 1326 1323 1376 1508 1422 1625 1124
0 0 0 0 0 0 0 0 0 0 0 0 0 0 0 0 0 0 7 0 13 0 24 68 155 273 393 577 680 649 804 663 643 692 763 102 133 138 437 1320 1557 1556 1406 1381 1436 1537 976 1093 886
0 0 0 0 0 0 0 0 0 0 0 0 0 0 0 0 0 0 0 0 0 0 0 0 0 19 82 158 324 499 454 528 626 612 645 452 224 117 63 342 1305 1681 1668 1508 1423 1477 1013 482 591
0 0 0 0 0 0 0 0 0 0 0 0 0 0 0 0 0 0 0 0 0 0 0 0 0 0 0 0 3 55 204 358 436 489 518 549 405 188 68 220 267 911 1279 1338 1366 1390 618 102 257
0 0 0 0 0 0 0 0 0 0 0 0 0 0 0 0 1 0 0 0 0 0 0 0 0 0 0 0 0 0 0 25 73 80 117 241 342 268 63 28 229 403 577 860 1118 1161 515 201 76
0 0 0 0 0 0 0 0 0 0 0 0 1 0 0 0 0 0 0 0 0 0 0 0 0 0 0 0 0 0 0 0 0 0 80 19 36 70 9 20 286 772 375 193 232 397 192 109 53
5 7 6 15 10 12 1 0 0 0 0 0 0 0 0 0 0 0 0 0 0 0 0 0 0 0 0 0 0 0 0 0 0 0 0 35 22 16 79 56 362 934 567 105 1 17 25 20 7
0 0 0 7 2 16 23 0 0 0 0 0 0 0 0 0 0 0 0 0 0 0 0 0 0 0 0 0 0 0 0 0 0 0 0 0 0 25 67 65 321 915 719 151 0 0 0 21 150
CIN
-0 -0 -0 -37 -0 -0 -91 -264 -333 -21 -39 -83 -111 -140 -42 -24 -19 -19 -485 -537 -634 -401 -194 -95 -0 -26 -134 -126 -226 -271 -260 -204 -180 -228 -136 -101 -69 -35 -6 -4 -4 -6 -9 -15 -22 -32 -60 -58 -61
-0 -0 -0 -0 -0 -0 -29 -254 -299 -8 -37 -35 -46 -71 -50 -39 -411 -481 -568 -688 -571 -354 -165 -102 -23 -54 -102 -170 -209 -267 -262 -237 -194 -223 -144 -106 -68 -39 -21 -7 -7 -11 -18 -35 -60 -77 -86 -79 -77
-0 -0 -0 -0 -17 -0 -0 -7 -266 -45 -68 -46 -43 -94 -43 -333 -470 -564 -576 -678 -500 -373 -206 -141 -85 -169 -144 -158 -239 -256 -255 -214 -207 -216 -146 -110 -72 -47 -24 -28 -24 -37 -58 -81 -109 -118 -112 -112 -110
-0 -0 -0 -0 -0 -0 -0 -0 -375 -40 -79 -156 -62 -105 -45 -364 -422 -459 -307 -650 -567 -394 -222 -129 -108 -126 -174 -245 -277 -260 -242 -201 -204 -206 -147 -132 -86 -64 -50 -54 -67 -76 -96 -123 -140 -154 -157 -165 -136
-0 -0 -3 -0 -0 -0 -0 -0 -163 -26 -43 -95 -100 -33 -273 -361 -330 -271 -310 -566 -682 -423 -242 -182 -132 -195 -217 -265 -248 -258 -228 -186 -184 -198 -165 -134 -104 -87 -74 -89 -91 -108 -130 -152 -167 -171 -143 -146 -126
-0 -0 -0 -0 -0 -0 -244 -36 -0 -0 -31 -46 -45 -57 -314 -377 -268 -219 -235 -8 -672 -516 -317 -257 -200 -168 -184 -209 -247 -235 -169 -161 -171 -181 -164 -131 -99 -95 -91 -119 -131 -143 -154 -165 -165 -130 -119 -120 -125
-0 -0 -0 -0 -0 -0 -206 -173 -102 -25 -81 -131 -163 -211 -365 -330 -240 -194 -176 -0 -605 -411 -351 -311 -298 -293 -238 -221 -230 -233 -179 -154 -136 -136 -120 -123 -114 -110 -104 -118 -140 -142 -127 -123 -125 -116 -114 -134 -135
-0 -0 -0 -0 -0 -0 -0 -101 -22 -15 -66 -118 -60 -317 -322 -368 -211 -178 -193 -0 -522 -412 -382 -328 -294 -285 -276 -299 -253 -224 -228 -167 -160 -163 -146 -122 -121 -114 -111 -95 -117 -130 -111 -95 -105 -113 -129 -140 -138
-0 -0 -0 -0 -0 -0 -210 -142 -17 -76 -59 -112 -75 -225 -281 -265 -229 -209 -118 -0 -373 -469 -373 -340 -314 -314 -302 -311 -308 -212 -207 -183 -177 -176 -155 -114 -152 -165 -155 -149 -142 -135 -101 -69 -78 -106 -134 -138 -144
-0 -0 -0 -0 -0 -3 -54 -156 -8 -21 -76 -148 -87 -98 -353 -291 -242 -255 -463 -0 -0 -0 -485 -392 -356 -343 -339 -351 -326 -273 -267 -241 -225 -216 -188 -167 -215 -229 -220 -201 -146 -122 -106 -75 -88 -103 -116 -137 -141
-0 -0 -0 -0 -0 -0 -106 -116 -17 -53 -165 -105 -93 -378 -349 -314 -352 -362 -303 -166 -127 -116 -539 -569 -496 -438 -409 -411 -368 -304 -311 -277 -255 -253 -233 -211 -262 -288 -295 -294 -308 -288 -205 -224 -200 -35 -35 -9 -21
-0 -0 -0 -0 -0 -0 -0 -105 -16 -163 -91 -77 -36 -328 -318 -294 -391 -364 -348 -255 -180 -145 -59 -792 -692 -590 -541 -516 -435 -385 -360 -340 -317 -299 -282 -287 -299 -350 -419 -400 -346 -302 -90 -56 -34 -32 -28 -8 -21
-0 -0 -0 -0 -0 -0 -0 -96 -45 -38 -80 -178 -16 -252 -281 -275 -467 -369 -317 -299 -234 -192 -143 -158 -121 -762 -754 -710 -617 -510 -495 -452 -422 -383 -378 -359 -382 -455 -501 -155 -161 -173 -192 -218 -43 -46 -16 -17 -22
-0 -0 -0 -0 -0 -0 -0 -0 -93 -32 -60 -191 -32 -226 -243 -257 -349 -398 -367 -363 -318 -250 -196 -156 -145 -128 -345 -315 -814 -801 -758 -673 -544 -536 -571 -485 -465 -543 -221 -154 -136 -153 -154 -196 -189 -76 -40 -15 -28
-0 -0 -0 -0 -0 -0 -0 -0 -61 -35 -295 -218 -44 -250 -215 -249 -240 -270 -369 -376 -258 -281 -236 -187 -175 -153 -149 -137 -455 -73 -935 -871 -767 -743 -697 -677 -597 -545 -482 -147 -162 -178 -158 -144 -143 -94 -32 -11 -10
-0 -0 -0 -0 -0 -0 -0 -17 -0 -182 -284 -209 -94 -172 -89 -95 -84 -207 -261 -186 -198 -218 -90 -187 -197 -163 -177 -159 -170 -84 -56 -275 -870 -838 -802 -728 -602 -506 -393 -255 -188 -166 -129 -137 -94 -14 -44 -12 -9
-0 -0 -0 -0 -0 -0 -0 -1 -0 -178 -146 -125 -88 -67 -55 -66 -79 -93 -172 -174 -158 -182 -216 -139 -89 -86 -75 -83 -118 -131 -244 -221 -216 -350 -236 -205 -209 -195 -160 -316 -215 -154 -210 -72 -43 -19 -6 -4 -13
-0 -0 -0 -0 -0 -0 -0 -0 -0 -8 -117 -75 -84 -57 -51 -47 -51 -67 -96 -75 -116 -99 -129 -221 -126 -86 -81 -68 -92 -100 -102 -180 -164 -158 -152 -117 -139 -157 -178 -272 -244 -147 -263 -117 -41 -19 -8 -3 -11
-0 -0 -0 -0 -0 -0 -0 -0 -0 -0 -0 -0 -0 -0 -193 -116 -131 -130 -96 -52 -66 -68 -328 -339 -349 -229 -115 -90 -93 -96 -83 -105 -139 -135 -118 -124 -118 -94 -92 -147 -252 -182 -251 -128 -36 -12 -6 -3 -2
-0 -0 -0 -0 -0 -0 -0 -0 -0 -0 -0 -0 -0 -0 -0 -148 -157 -124 -93 -40 -137 -122 -195 -241 -280 -236 -203 -117 -289 -301 -267 -269 -171 -265 -210 -139 -286 -163 -103 -67 -74 -189 -192 -105 -51 -34 -13 -4 -2
-0 -0 -0 -0 -0 -0 -0 -0 -0 -0 -0 -0 -0 -144 -167 -191 -138 -122 -49 -49 -174 -103 -134 -148 -179 -169 -150 -151 -164 -137 -143 -143 -147 -197 -200 -185 -243 -230 -190 -224 -113 -171 -107 -50 -40 -52 -42 -6 -4
-0 -0 -0 -0 -0 -0 -0 -0 -0 -0 -0 -0 -0 -0 -117 -100 -104 -139 -115 -93 -97 -78 -91 -134 -91 -97 -62 -49 -61 -40 -52 -62 -47 -68 -94 -139 -119 -306 -179 -129 -200 -165 -160 -115 -55 -58 -40 -24 -42
-0 -0 -0 -0 -0 -0 -0 -0 -0 -0 -0 -0 -0 -0 -0 -0 -65 -58 -68 -81 -92 -100 -131 -122 -100 -98 -89 -98 -112 -111 -73 -53 -55 -66 -86 -35 -95 -72 -254 -225 -111 -86 -138 -99 -73 -44 -36 -40 -47
-0 -0 -0 -0 -0 -0 -0 -0 -0 -0 -0 -0 -0 -0 -0 -0 -0 -0 -55 -6 -78 -0 -99 -135 -106 -119 -118 -104 -101 -116 -83 -81 -66 -83 -93 -329 -182 -86 -359 -132 -166 -114 -86 -155 -92 -44 -34 -23 -58
-0 -0 -0 -0 -0 -0 -0 -0 -0 -0 -0 -0 -0 -0 -0 -0 -0 -0 -0 -0 -0 -0 -0 -0 -0 -130 -138 -90 -86 -84 -105 -87 -77 -101 -116 -117 -74 -87 -236 -405 -118 -52 -101 -79 -98 -34 -39 -10 -39
-0 -0 -0 -0 -0 -0 -0 -0 -0 -0 -0 -0 -0 -0 -0 -0 -0 -0 -0 -0 -0 -0 -0 -0 -0 -0 -0 -0 -16 -79 -123 -93 -84 -86 -100 -118 -104 -62 -35 -418 -396 -143 -48 -16 -5 -3 -1 -0 -14
-0 -0 -0 -0 -0 -0 -0 -0 -0 -0 -0 -0 -0 -5 -2 -10 -71 -0 -0 -0 -0 -0 -0 -0 -0 -0 -0 -0 -0 -0 -0 -92 -65 -46 -67 -96 -115 -116 -189 -564 -365 -207 -93 -17 -6 -0 -0 -6 -0
-0 -0 -0 -0 -0 -0 -0 -0 -0 -0 -0 -0 -56 -37 -0 -0 -0 -0 -0 -0 -0 -0 -0 -0 -0 -0 -0 -0 -0 -0 -0 -0 -0 -0 -179 -145 -159 -135 -153 -263 -261 -14 -93 -95 -75 -0 -0 -5 -0
-4 -4 -11 -6 -2 -1 -3 -0 -0 -0 -0 -0 -0 -0 -0 -0 -0 -0 -0 -0 -0 -0 -0 -0 -0 -0 -0 -0 -0 -0 -0 -0 -0 -0 -0 -157 -200 -289 -224 -215 -109 -0 -6 -35 -0 -1 -0 -3 -1
-0 -0 -0 -1 -3 -2 -2 -0 -0 -0 -0 -0 -0 -0 -0 -0 -0 -0 -0 -0 -0 -0 -0 -0 -0 -0 -0 -0 -0 -0 -0 -0 -0 -0 -0 -0 -0 -174 -144 -142 -88 -0 -6 -45 -0 -0 -0 -0 -2
Wind_Speed
nan nan nan nan nan nan nan nan nan nan nan 11 nan nan nan nan nan nan 7 nan 24 22 17 23 25 25 24 21 20 19 21 21 23 25 26 27 27 25 23 22 18 16 14 14 12 10 9 8 8
nan nan nan nan nan nan nan nan nan nan nan 11 10 14 8 8 1 7 9 nan 18 20 15 18 27 25 23 21 19 19 21 22 23 25 25 25 23 24 25 21 18 15 12 10 9 8 7 5 5
nan nan nan nan nan nan nan nan nan nan nan nan 11 8 nan nan 11 14 13 nan 18 22 17 20 25 26 23 21 21 20 20 21 23 23 24 22 20 22 21 19 15 12 10 10 9 8 7 6 7
nan nan nan nan nan nan nan nan nan nan 10 1 nan 2 nan 9 16 14 20 22 21 18 17 26 26 25 24 23 22 22 22 22 21 21 21 19 20 22 19 18 14 12 12 14 13 11 8 8 9
nan nan nan nan nan nan nan nan nan nan 16 16 6 5 11 6 19 23 nan nan nan 15 15 21 28 28 25 24 23 22 21 20 20 19 17 19 21 20 17 14 13 13 15 15 14 13 14 16 15
nan nan nan nan nan nan nan nan nan nan 16 11 7 7 10 14 22 nan nan nan nan 18 17 19 26 23 24 24 23 22 19 19 17 14 15 18 20 18 15 12 12 14 16 16 14 13 15 17 18
nan nan nan nan nan nan nan nan nan nan nan 7 nan nan 14 10 nan 24 26 nan nan 16 18 16 18 21 24 23 23 21 19 16 13 12 15 19 19 16 13 11 12 15 18 19 15 13 14 16 15
nan nan nan nan nan nan nan nan nan nan nan 5 15 nan 18 24 32 26 nan nan 14 15 16 16 16 15 17 19 24 20 17 13 11 14 17 18 16 15 13 10 11 14 13 13 15 17 18 16 14
nan nan nan nan nan nan nan nan nan nan 2 3 15 nan 23 36 35 27 nan nan nan 11 10 14 16 16 17 15 13 14 13 12 13 14 16 13 9 9 9 9 11 13 13 14 14 14 14 13 14
nan nan nan nan nan nan nan nan nan nan 4 nan 8 11 32 32 35 28 nan nan nan nan 12 13 13 12 13 11 8 8 5 4 6 7 8 8 8 8 7 8 9 15 15 15 16 17 17 14 11
nan nan nan nan nan nan nan nan nan nan 4 nan 19 nan 37 34 33 30 29 27 29 20 nan nan 14 13 11 7 7 5 5 6 6 7 7 7 7 7 7 6 7 7 12 10 12 10 11 13 12
nan nan nan nan nan nan nan nan 6 9 10 9 22 28 26 26 32 34 32 28 21 19 nan nan nan 13 12 7 7 6 7 7 8 7 8 5 5 6 7 7 6 7 8 10 12 10 13 14 16
nan nan nan nan nan nan nan nan 19 10 8 8 10 16 25 26 31 26 29 30 28 18 16 nan nan nan nan nan 10 11 11 10 10 10 10 8 7 6 nan 5 4 5 9 10 10 10 10 11 13
nan nan nan nan nan nan nan nan 25 7 7 9 12 16 24 20 24 25 28 28 26 26 23 19 16 12 nan nan nan 13 14 15 14 13 13 14 10 nan nan 5 6 6 8 10 11 11 10 9 12
nan nan nan nan nan nan nan nan 12 11 20 11 11 13 16 20 18 15 11 19 27 26 28 30 27 22 18 14 nan nan nan nan nan 16 16 nan 16 10 8 8 8 7 9 8 9 11 12 13 14
nan nan nan nan nan nan nan nan nan nan 19 4 15 27 37 36 34 34 27 7 4 7 10 16 16 21 22 21 15 nan nan nan nan nan nan nan 20 18 14 13 14 14 13 14 14 15 16 18 18
nan nan nan nan nan nan nan nan nan nan 50 52 48 46 44 45 46 nan 40 40 35 16 5 2 8 6 6 7 10 10 7 9 14 nan 16 17 21 22 20 18 20 19 19 16 17 18 19 19 20
nan nan nan nan nan nan nan nan nan nan nan nan nan nan nan nan nan 42 47 50 46 41 34 25 11 7 5 8 12 15 15 14 14 16 17 16 13 15 22 23 25 24 23 20 21 21 19 20 19
nan nan nan nan nan nan nan nan nan nan nan nan nan nan nan nan nan 46 49 49 48 45 45 35 33 22 15 14 14 16 17 22 19 19 20 23 25 22 18 18 23 30 26 23 23 24 23 18 19
nan nan nan nan nan nan nan nan nan nan nan nan nan nan nan nan 50 50 52 58 50 39 44 45 43 39 29 22 27 28 27 25 29 28 24 26 28 29 27 25 23 20 25 25 27 25 25 22 20
nan nan nan nan nan nan nan nan nan nan nan nan nan nan nan nan nan 55 54 nan nan 46 46 45 41 41 41 37 32 29 38 28 35 33 31 27 27 29 28 29 28 28 24 22 23 29 29 26 23
nan nan nan nan nan nan nan nan nan nan nan nan nan nan nan 55 53 nan 54 54 55 52 49 47 46 45 43 47 42 42 38 42 44 39 40 33 30 33 30 25 27 31 27 25 24 26 29 36 31
nan nan nan nan nan nan nan nan nan nan nan nan nan nan nan nan nan 58 60 56 55 54 49 48 49 46 47 45 44 42 41 42 46 52 41 38 37 32 29 38 28 29 32 28 30 33 32 37 39
nan nan nan nan nan nan nan nan nan nan nan nan nan nan nan nan nan nan nan nan nan nan nan nan 51 50 51 50 47 49 51 48 46 47 43 36 27 32 35 33 40 36 35 36 36 40 39 43 43
nan nan nan nan nan nan nan nan nan nan nan nan nan nan nan nan nan nan nan nan nan nan nan nan nan nan nan 49 48 46 45 43 43 41 40 31 33 35 nan 35 30 43 42 43 50 49 49 53 48
nan nan nan nan nan nan nan nan nan nan nan nan nan nan nan nan nan nan nan nan nan nan nan nan nan nan nan nan nan nan 52 52 49 45 44 42 38 38 nan 40 44 43 51 56 69 71 69 53 46
nan nan nan nan nan nan nan nan nan nan nan nan nan nan nan nan nan nan nan nan nan nan nan nan nan nan nan nan nan nan nan nan nan nan 49 49 45 45 nan nan 42 44 51 63 68 68 81 70 nan
nan nan nan nan nan nan nan nan nan nan nan nan nan nan nan nan nan nan nan nan nan nan nan nan nan nan nan nan nan nan nan nan nan nan nan nan nan nan nan nan 40 43 57 66 70 86 83 55 nan
nan nan nan nan nan nan nan nan nan nan nan nan nan nan nan nan nan nan nan nan nan nan nan nan nan nan nan nan nan nan nan nan nan nan nan nan nan nan nan nan 46 48 56 60 nan nan nan nan nan
nan nan nan nan nan nan nan nan nan nan nan nan nan nan nan nan nan nan nan nan nan nan nan nan nan nan nan nan nan nan nan nan nan nan nan nan nan nan nan nan 57 48 48 50 nan nan nan nan 20
Wind_Direction
nan nan nan nan nan nan nan nan nan nan nan 49 nan nan nan nan nan nan 312 nan 312 323 332 333 330 327 329 331 331 326 324 322 316 313 315 318 319 322 322 322 327 326 328 327 329 328 330 333 330
nan nan nan nan nan nan nan nan nan nan nan 77 50 14 32 72 58 312 330 nan 321 326 323 323 325 326 326 328 323 324 322 320 316 316 318 321 327 329 325 330 333 334 338 343 353 352 358 359 351
nan nan nan nan nan nan nan nan nan nan nan nan 24 348 nan nan 334 331 322 nan 313 328 319 322 323 328 326 320 319 319 318 318 317 319 321 325 332 334 335 336 339 345 359 12 20 18 15 23 25
nan nan nan nan nan nan nan nan nan nan 207 189 nan 313 nan 356 337 330 316 307 306 308 315 321 318 320 321 317 317 318 319 317 318 322 325 334 338 341 346 345 355 5 21 40 42 46 45 51 48
nan nan nan nan nan nan nan nan nan nan 190 161 107 240 274 292 294 312 nan nan nan 302 307 315 319 324 319 319 317 317 319 318 321 328 331 338 344 348 355 352 2 18 28 45 54 53 54 59 61
nan nan nan nan nan nan nan nan nan nan 161 158 222 266 255 290 308 nan nan nan nan 323 319 325 325 323 321 319 317 315 317 320 327 335 337 343 347 353 1 5 15 25 29 37 45 51 57 62 68
nan nan nan nan nan nan nan nan nan nan nan 72 nan nan 266 289 nan 305 307 nan nan 316 319 318 320 330 323 319 315 319 322 331 336 339 346 346 353 3 10 21 22 39 45 50 55 61 63 73 74
nan nan nan nan nan nan nan nan nan nan nan 358 32 nan 333 328 317 312 nan nan 299 311 313 311 312 307 302 306 322 326 334 340 343 349 349 354 4 14 20 32 38 48 43 40 53 72 75 76 75
nan nan nan nan nan nan nan nan nan nan 28 325 10 nan 345 333 319 325 nan nan nan 312 321 317 309 302 299 299 312 327 343 351 355 351 357 5 6 22 28 28 48 58 58 52 58 61 70 78 86
nan nan nan nan nan nan nan nan nan nan 300 nan 356 317 335 322 327 335 nan nan nan nan 351 332 316 305 301 306 300 293 300 294 314 340 1 2 15 15 27 28 49 69 68 61 57 64 71 72 47
nan nan nan nan nan nan nan nan nan nan 359 nan 357 nan 337 336 329 347 355 354 1 3 nan nan 333 324 327 324 292 268 263 285 306 340 357 7 2 356 355 355 0 30 56 44 40 40 19 26 31
nan nan nan nan nan nan nan nan 355 5 360 351 4 4 359 337 342 356 358 2 2 355 nan nan nan 341 339 312 308 291 279 290 313 316 333 336 326 346 353 350 356 18 33 41 23 14 24 17 17
nan nan nan nan nan nan nan nan 291 42 48 311 349 8 2 11 14 4 357 357 355 352 4 nan nan nan nan nan 314 305 306 313 324 307 315 309 313 333 nan 328 351 11 357 15 15 359 13 7 1
nan nan nan nan nan nan nan nan 280 48 321 301 357 17 11 9 17 13 4 3 3 360 10 1 13 8 nan nan nan 329 323 320 319 314 318 319 294 nan nan 293 325 344 347 360 346 342 343 341 324
nan nan nan nan nan nan nan nan 343 308 315 306 49 9 16 20 1 43 32 30 14 7 3 6 5 5 360 355 nan nan nan nan nan 324 318 nan 312 296 295 286 288 313 312 325 314 322 311 303 299
nan nan nan nan nan nan nan nan nan nan 315 236 199 211 213 216 215 197 189 220 46 74 109 22 5 1 6 358 341 nan nan nan nan nan nan nan 310 306 287 281 283 289 288 293 293 296 295 306 303
nan nan nan nan nan nan nan nan nan nan 225 215 216 222 221 220 218 nan 213 211 198 188 181 64 75 16 12 343 318 296 277 307 295 nan 292 305 314 313 300 285 281 285 279 280 280 285 296 301 297
nan nan nan nan nan nan nan nan nan nan nan nan nan nan nan nan nan 226 234 226 215 212 210 203 229 210 250 282 303 303 289 282 274 267 261 258 272 299 297 285 279 277 273 271 274 281 285 290 294
nan nan nan nan nan nan nan nan nan nan nan nan nan nan nan nan nan 228 232 235 230 225 222 218 213 205 249 274 265 267 282 277 273 275 265 259 257 245 233 248 269 276 273 274 276 273 278 275 283
nan nan nan nan nan nan nan nan nan nan nan nan nan nan nan nan 228 229 239 235 231 233 233 229 229 224 220 241 271 283 277 279 286 285 284 279 272 263 254 249 243 241 262 273 272 270 264 266 276
nan nan nan nan nan nan nan nan nan nan nan nan nan nan nan nan nan 234 233 nan nan 241 242 238 237 238 240 234 251 271 268 258 278 271 271 272 274 274 272 269 259 256 245 246 262 275 275 269 268
nan nan nan nan nan nan nan nan nan nan nan nan nan nan nan 229 232 nan 238 242 242 242 246 248 246 246 242 242 248 258 270 271 273 256 254 243 245 268 269 270 270 268 261 261 264 262 269 272 269
nan nan nan nan nan nan nan nan nan nan nan nan nan nan nan nan nan 235 236 238 242 242 245 246 250 252 250 244 248 257 259 273 279 279 253 244 242 240 260 286 270 270 268 264 272 267 265 264 265
nan nan nan nan nan nan nan nan nan nan nan nan nan nan nan nan nan nan nan nan nan nan nan nan 252 255 254 257 259 259 262 262 272 281 287 298 288 308 290 288 272 269 270 271 270 270 266 263 255
nan nan nan nan nan nan nan nan nan nan nan nan nan nan nan nan nan nan nan nan nan nan nan nan nan nan nan 257 261 260 262 265 265 274 286 289 288 296 nan 297 292 289 280 282 275 264 264 263 255
nan nan nan nan nan nan nan nan nan nan nan nan nan nan nan nan nan nan nan nan nan nan nan nan nan nan nan nan nan nan 267 275 276 277 280 288 290 291 nan 297 298 297 296 285 274 262 262 251 255
nan nan nan nan nan nan nan nan nan nan nan nan nan nan nan nan nan nan nan nan nan nan nan nan nan nan nan nan nan nan nan nan nan nan 281 285 286 287 nan nan 299 291 284 293 285 274 264 263 nan
nan nan nan nan nan nan nan nan nan nan nan nan nan nan nan nan nan nan nan nan nan nan nan nan nan nan nan nan nan nan nan nan nan nan nan nan nan nan nan nan 295 294 295 293 289 287 267 249 nan
nan nan nan nan nan nan nan nan nan nan nan nan nan nan nan nan nan nan nan nan nan nan nan nan nan nan nan nan nan nan nan nan nan nan nan nan nan nan nan nan 286 293 297 296 nan nan nan nan nan
nan nan nan nan nan nan nan nan nan nan nan nan nan nan nan nan nan nan nan nan nan nan nan nan nan nan nan nan nan nan nan nan nan nan nan nan nan nan nan nan 286 286 297 293 nan nan nan nan 305